TimeEST,TemperatureF,Dew PointF,Humidity,Sea Level PressureIn,VisibilityMPH,Wind Direction,Wind SpeedMPH,Gust SpeedMPH,PrecipitationIn,Events,Conditions,WindDirDegrees,DateUTC
12:52 AM,28.0,23.0,81,30.42,10.0,Calm,Calm,-,N/A,,Clear,0,2012-12-13 05:52:00
1:52 AM,27.0,21.9,81,30.42,10.0,Calm,Calm,-,N/A,,Clear,0,2012-12-13 06:52:00
2:52 AM,26.1,21.9,84,30.42,10.0,Calm,Calm,-,N/A,,Clear,0,2012-12-13 07:52:00
3:52 AM,27.0,23.0,85,30.41,10.0,Calm,Calm,-,N/A,,Clear,0,2012-12-13 08:52:00
4:52 AM,26.1,23.0,88,30.41,10.0,Calm,Calm,-,N/A,,Clear,0,2012-12-13 09:52:00
5:52 AM,25.0,21.9,88,30.43,10.0,Calm,Calm,-,N/A,,Clear,0,2012-12-13 10:52:00
6:52 AM,25.0,21.9,88,30.42,10.0,Calm,Calm,-,N/A,,Clear,0,2012-12-13 11:52:00
7:52 AM,27.0,23.0,85,30.45,10.0,Calm,Calm,-,N/A,,Clear,0,2012-12-13 12:52:00
8:52 AM,30.9,25.0,79,30.47,10.0,Calm,Calm,-,N/A,,Clear,0,2012-12-13 13:52:00
9:52 AM,37.9,27.0,65,30.45,10.0,NNW,3.5,-,N/A,,Clear,340,2012-12-13 14:52:00
10:52 AM,42.1,27.0,55,30.42,10.0,NE,3.5,-,N/A,,Clear,40,2012-12-13 15:52:00
11:52 AM,43.0,26.1,51,30.42,10.0,Calm,Calm,-,N/A,,Clear,0,2012-12-13 16:52:00
12:52 PM,44.1,24.1,45,30.38,10.0,Calm,Calm,-,N/A,,Clear,0,2012-12-13 17:52:00
1:52 PM,45.0,23.0,42,30.39,10.0,Calm,Calm,-,N/A,,Partly Cloudy,0,2012-12-13 18:52:00
2:52 PM,44.1,26.1,49,30.37,10.0,Calm,Calm,-,N/A,,Clear,0,2012-12-13 19:52:00
3:52 PM,41.0,26.1,55,30.37,10.0,Calm,Calm,-,N/A,,Clear,0,2012-12-13 20:52:00
4:52 PM,34.0,26.1,73,30.37,10.0,Calm,Calm,-,N/A,,Clear,0,2012-12-13 21:52:00
7:52 PM,28.0,24.1,85,30.36,10.0,Calm,Calm,-,N/A,,Clear,0,2012-12-14 00:52:00
8:52 PM,27.0,24.1,89,30.35,10.0,Calm,Calm,-,N/A,,Clear,0,2012-12-14 01:52:00
9:52 PM,26.1,23.0,88,30.33,10.0,Calm,Calm,-,N/A,,Clear,0,2012-12-14 02:52:00
10:52 PM,25.0,21.0,85,30.32,9.0,Calm,Calm,-,N/A,,Clear,0,2012-12-14 03:52:00
11:52 PM,25.0,21.0,85,30.31,10.0,Calm,Calm,-,N/A,,Clear,0,2012-12-14 04:52:00